Weather Roundup
Issued by NWS Chicago, IL

Home | Current Version | Previous Version | Graphics & Text | Print | Product List | Glossary On
Versions: 1 2 3 4 5 6 7 8 9 10 11 12 13 14 15 16 17 18 19 20 21 22 23 24 25 26 27 28 29 30 31 32 33 34 35 36 37 38 39 40 41 42 43 44 45 46 47 48 49 50
000
NZUS59 KLOT 260112
HRRLOT

CHICAGO AREA WEATHER ROUNDUP
NATIONAL WEATHER SERVICE CHICAGO/ROMEOVILLE IL
800 PM CDT SAT APR 25 2015

NOTE: "FAIR" INDICATES FEW OR NO CLOUDS BELOW 12,000 FEET WITH NO
SIGNIFICANT WEATHER AND/OR OBSTRUCTIONS TO VISIBILITY.

* THESE STATIONS ARE NOT UNDER NWS QUALITY CONTROL. THEY ALSO MAY NOT
  REPORT WEATHER SUCH AS PRECIPITATION OR FOG.

ILZ005-006-012>014-019>023-260200-
NORTHEAST ILLINOIS

CITY           SKY/WX    TMP DP  RH WIND       PRES   REMARKS
OHARE          CLOUDY    42  32  67 N14       29.82R
MIDWAY         CLOUDY    44  35  70 NE14      29.82R
AURORA         CLOUDY    45  37  73 NE12      29.82R
LANSING*       CLOUDY    44  39  84 N7        29.81R
JOLIET*        CLOUDY    47  42  83 NE13G18   29.80R
WAUKEGAN       CLOUDY    40  28  62 N8        29.84R
DUPAGE AIRPORT CLOUDY    43  34  70 NE13      29.82R
WHEELING       CLOUDY    42  30  62 N10       29.84R
KANKAKEE*      DRIZZLE   46  43  90 NE15G21   29.77R
MORRIS*        CLOUDY    46  40  81 NE6       29.77R
LEWIS AIRPORT* CLOUDY    45  39  81 NE16      29.80R
NORTHERLY IS     N/A     41  35  79 MISG        N/A
$$

WIZ051-052-058>065-066-070>072-260200-
SOUTHEAST WISCONSIN

CITY           SKY/WX    TMP DP  RH WIND       PRES   REMARKS
MILWAUKEE      MOCLDY    40  24  53 NE14G23   29.87R
KENOSHA*       CLOUDY    40  28  62 N9        29.86R
RACINE*        CLOUDY    39  27  62 N15       29.88R
BURLINGTON     CLOUDY    41  24  51 NE7       29.86R
WAUKESHA       MOCLDY    43  21  42 NE10      29.87R
WEST BEND      CLOUDY    43  14  31 NE10      29.87R
$$

INZ001>003-010>013-019-020-260200-
NORTHWEST INDIANA

CITY           SKY/WX    TMP DP  RH WIND       PRES   REMARKS
GARY*          CLOUDY    43  37  81 NE10      29.81R
MICHIGAN CITY* NOT AVBL
RENSSELAER*    NOT AVBL
VALPARAISO     LGT RAIN  45  40  82 NE8       29.80R
$$

LMZ740>746-260200-
SOUTHERN LAKE MICHIGAN

STATION/POSITION TIME  SKY/WX   TEMP WIND        PRES    VSBY
                                AIR  DIR/SP/G
                 (UTC)          (F)  (DEG/KT/KT) (MB)    (MI)
HARRISON CRIB    0000            40   10/ 17/ 19   N/A
BURNHAM HARBOR   0100            41  340/ 12/ 16   N/A
CALUMET HARBOR   0000            42  350/  9/ 14   N/A
BURNS HARBOR     0000            44   30/ 11/ 12 1009.5R
MICHIGAN CITY    0000            47   40/  6/  8   N/A
$$

ABBREVIATIONS USED IN REMARKS
   TC - TEMPERATURE IN CELSIUS
  WCI - WIND CHILL INDEX
   HX - HEAT INDEX
  VSB - VISIBILITY
$$



USA.gov is the U.S. government's official web portal to all federal, state and local government web resources and services.